Location: Ferchesar
(52.6477°N, 12.4298°E)
Time: 21:03:57
(UTC+01:00)

Vanguard 3 - Visible Passes

Search period start: 03 December 2021 00:00
Search period end: 13 December 2021 00:00
Orbit: 509 x 3260 km, 33.4° (Epoch: 03 December)

Date Brightness Start Highest point End Pass type
(mag) Time Alt. Az. Time Alt. Az. Time Alt. Az.
03 Dec 11.2 02:22:48 17° SSE 02:28:45 20° SE 02:39:59 10° ESE visible
03 Dec 10.7 04:27:23 13° SW 04:41:49 33° SSE 04:54:37 10° ESE visible
03 Dec 10.6 06:39:33 10° WSW 06:55:03 35° S 07:05:55 10° SE visible
04 Dec 11.4 01:13:09 13° SE 01:13:37 13° SE 01:20:50 10° ESE visible
04 Dec 10.9 03:17:43 22° S 03:26:05 29° SSE 03:39:24 10° ESE visible
04 Dec 10.6 05:22:56 10° SW 05:39:33 37° S 05:52:04 10° ESE visible
05 Dec 11.0 02:07:56 22° SSE 02:10:30 23° SE 02:23:01 10° ESE visible
05 Dec 10.7 04:12:30 21° SSW 04:23:43 36° SSE 04:37:32 10° ESE visible
05 Dec 10.6 06:21:00 10° WSW 06:37:10 36° S 06:48:57 10° SE visible
06 Dec 11.3 00:58:02 15° SE 00:58:02 15° SE 01:04:30 10° ESE visible
06 Dec 10.8 03:02:35 28° S 03:07:51 31° SSE 03:22:11 10° ESE visible
06 Dec 10.6 05:07:08 15° SW 05:21:30 39° S 05:34:59 10° ESE visible
06 Dec 10.7 07:19:44 10° WSW 07:34:28 31° SSW 07:45:09 10° SSE visible
07 Dec 10.9 01:52:35 25° SE 01:52:35 25° SE 02:05:45 10° ESE visible
07 Dec 10.6 03:57:08 28° SSW 04:05:32 37° S 04:20:17 10° ESE visible
07 Dec 10.6 06:02:32 10° WSW 06:19:10 37° SSW 06:31:50 10° SE visible
08 Dec 11.3 00:42:30 15° ESE 00:42:30 15° ESE 00:47:32 10° ESE visible
08 Dec 10.7 02:47:03 32° S 02:49:33 33° SSE 03:04:45 10° ESE visible
08 Dec 10.6 04:51:35 22° SW 05:03:21 40° S 05:17:43 10° ESE visible
08 Dec 10.7 07:01:19 10° WSW 07:16:29 31° SSW 07:27:56 10° SSE visible
09 Dec 10.9 01:36:54 26° SE 01:36:54 26° SE 01:48:13 10° E visible
09 Dec 10.5 03:41:26 33° SSW 03:47:15 39° S 04:02:51 10° ESE visible
09 Dec 10.6 05:45:58 14° WSW 06:01:03 37° SSW 06:14:33 10° SE visible
10 Dec 11.3 00:26:43 14° ESE 00:26:43 14° ESE 00:30:08 10° ESE visible
10 Dec 10.6 02:31:15 35° SSE 02:31:15 35° SSE 02:47:08 10° ESE visible
10 Dec 10.5 04:35:46 27° SW 04:45:06 40° S 05:00:18 10° ESE visible
10 Dec 10.8 06:43:00 10° WSW 06:58:22 31° SSW 07:10:33 10° SSE visible
11 Dec 11.0 01:21:01 25° SE 01:21:01 25° SE 01:30:28 10° E visible
11 Dec 10.4 03:25:32 38° S 03:28:56 40° S 03:45:13 10° ESE visible
11 Dec 10.6 05:30:04 18° WSW 05:42:49 37° SSW 05:57:05 10° SE visible
12 Dec 11.4 00:10:45 12° ESE 00:10:45 12° ESE 00:12:25 10° E visible
12 Dec 10.6 02:15:16 35° SSE 02:15:16 35° SSE 02:29:19 10° ESE visible
12 Dec 10.5 04:19:48 32° SW 04:26:48 40° S 04:42:41 10° SE visible
12 Dec 10.8 06:24:50 10° W 06:40:09 30° SSW 06:52:57 10° SSE visible
